,,Stat5,,Stat1,,Stat2,,Stat3,,Stat4,,Wind1,,Wind1,
time,status,PA1M_AVG,status,PR1M_SUM,status,RH1M_AVG,status,SR1M_AVG,status,TA1M_AVG,status,W1dAve1m,status,W1sAve1m,
2003-02-08, 00:00:00,VALID,917.553,VALID,0,VALID,91.7437,VALID,0,VALID,19.7917,VALID,147,VALID,1.76246,
2003-02-08, 00:01:00,VALID,917.537,VALID,0,VALID,92.2664,VALID,0,VALID,19.6985,VALID,136,VALID,1.14611,
2003-02-08, 00:02:00,VALID,917.543,VALID,0,VALID,92.597,VALID,0,VALID,19.6077,VALID,124,VALID,0.999794,
2003-02-08, 00:03:00,VALID,917.547,VALID,0,VALID,93.0064,VALID,0,VALID,19.5336,VALID,135,VALID,1.17948,
2003-02-08, 00:04:00,VALID,917.562,VALID,0,VALID,93.4439,VALID,0,VALID,19.4687,VALID,140,VALID,1.0733,
2003-02-08, 00:05:00,VALID,917.581,VALID,0,VALID,93.7796,VALID,0,VALID,19.4203,VALID,132,VALID,1.29473,
2003-02-08, 00:06:00,VALID,917.583,VALID,0,VALID,93.9983,VALID,0,VALID,19.3917,VALID,137,VALID,1.4998,
2003-02-08, 00:07:00,VALID,917.582,VALID,0,VALID,94.1458,VALID,0,VALID,19.3688,VALID,139,VALID,1.46094,
2003-02-08, 00:08:00,VALID,917.596,VALID,0,VALID,94.3403,VALID,0.0169808,VALID,19.3397,VALID,149,VALID,1.80108,
2003-02-08, 00:09:00,VALID,917.578,VALID,0,VALID,94.4955,VALID,0,VALID,19.3206,VALID,131,VALID,1.28653,
2003-02-08, 00:10:00,VALID,917.568,VALID,0,VALID,94.8833,VALID,-0.0339617,VALID,19.2942,VALID,142,VALID,1.74175,
2003-02-08, 00:11:00,VALID,917.547,VALID,0,VALID,94.8884,VALID,-0.0169808,VALID,19.3238,VALID,128,VALID,1.69371,
2003-02-08, 00:12:00,VALID,917.529,VALID,0,VALID,94.76,VALID,0,VALID,19.3327,VALID,136,VALID,1.39926,
2003-02-08, 00:13:00,VALID,917.533,VALID,0,VALID,94.835,VALID,0,VALID,19.3591,VALID,115,VALID,1.74157,
2003-02-08, 00:14:00,VALID,917.506,VALID,0,VALID,94.7511,VALID,-0.0169808,VALID,19.3621,VALID,130,VALID,0.982475,
2003-02-08, 00:15:00,VALID,917.502,VALID,0,VALID,94.6481,VALID,-0.0339617,VALID,19.375,VALID,112,VALID,1.07791,
2003-02-08, 00:16:00,VALID,917.469,VALID,0,VALID,94.6315,VALID,0,VALID,19.369,VALID,118,VALID,0.97973,
2003-02-08, 00:17:00,VALID,917.459,VALID,0,VALID,94.7396,VALID,0,VALID,19.3588,VALID,119,VALID,0.873972,
2003-02-08, 00:18:00,VALID,917.454,VALID,0,VALID,94.8236,VALID,0,VALID,19.3563,VALID,121,VALID,1.19692,
2003-02-08, 00:19:00,VALID,917.446,VALID,0,VALID,94.8147,VALID,0,VALID,19.369,VALID,127,VALID,1.09095,
2003-02-08, 00:20:00,VALID,917.446,VALID,0,VALID,94.8007,VALID,-0.0169808,VALID,19.366,VALID,130,VALID,0.965794,
2003-02-08, 00:21:00,VALID,917.432,VALID,0,VALID,94.8401,VALID,-0.0169808,VALID,19.3462,VALID,125,VALID,1.14576,
2003-02-08, 00:22:00,VALID,917.408,VALID,0,VALID,94.9266,VALID,-0.0169808,VALID,19.3365,VALID,119,VALID,1.40385,
2003-02-08, 00:23:00,VALID,917.384,VALID,0,VALID,95.0753,VALID,-0.0169808,VALID,19.3404,VALID,132,VALID,1.39203,
2003-02-08, 00:24:00,VALID,917.369,VALID,0,VALID,95.1682,VALID,-0.0339617,VALID,19.3402,VALID,127,VALID,1.36443,
2003-02-08, 00:25:00,VALID,917.337,VALID,0,VALID,95.247,VALID,-0.0339617,VALID,19.3462,VALID,125,VALID,1.14371,
2003-02-08, 00:26:00,VALID,917.314,VALID,0,VALID,95.2966,VALID,-0.0169808,VALID,19.3663,VALID,125,VALID,1.45861,
2003-02-08, 00:27:00,VALID,917.297,VALID,0,VALID,95.289,VALID,0,VALID,19.366,VALID,138,VALID,1.35004,
2003-02-08, 00:28:00,VALID,917.268,VALID,0,VALID,95.2521,VALID,0,VALID,19.379,VALID,148,VALID,1.51845,
2003-02-08, 00:29:00,VALID,917.257,VALID,0,VALID,95.1974,VALID,-0.0169808,VALID,19.3894,VALID,129,VALID,1.4412,
2003-02-08, 00:30:00,VALID,917.263,VALID,0,VALID,95.1732,VALID,-0.0339617,VALID,19.3892,VALID,132,VALID,1.48733,
2003-02-08, 00:31:00,VALID,917.254,VALID,0,VALID,95.1084,VALID,-0.0169808,VALID,19.3757,VALID,125,VALID,1.4596,
2003-02-08, 00:32:00,VALID,917.243,VALID,0,VALID,95.0524,VALID,-0.0169808,VALID,19.3728,VALID,131,VALID,1.59375,
2003-02-08, 00:33:00,VALID,917.228,VALID,0,VALID,95.0982,VALID,-0.0169808,VALID,19.3824,VALID,138,VALID,1.69984,
2003-02-08, 00:34:00,VALID,917.228,VALID,0,VALID,95.0448,VALID,0.0169808,VALID,19.3795,VALID,116,VALID,1.33594,
2003-02-08, 00:35:00,VALID,917.226,VALID,0,VALID,94.9545,VALID,-0.0679233,VALID,19.3673,VALID,113,VALID,1.05293,
2003-02-08, 00:36:00,VALID,917.219,VALID,0,VALID,95.0702,VALID,-0.0679233,VALID,19.3516,VALID,123,VALID,1.25,
2003-02-08, 00:37:00,VALID,917.209,VALID,0,VALID,95.1211,VALID,-0.0509425,VALID,19.3121,VALID,136,VALID,0.718539,
2003-02-08, 00:38:00,VALID,917.189,VALID,0,VALID,95.1262,VALID,-0.0849042,VALID,19.3088,VALID,118,VALID,0.903646,
2003-02-08, 00:39:00,VALID,917.167,VALID,0,VALID,95.0957,VALID,-0.101885,VALID,19.2991,VALID,128,VALID,0.895232,
2003-02-08, 00:40:00,VALID,917.153,VALID,0,VALID,95.1376,VALID,-0.0679233,VALID,19.2966,VALID,140,VALID,0.903045,
2003-02-08, 00:41:00,VALID,917.127,VALID,0,VALID,95.069,VALID,-0.0849042,VALID,19.2793,VALID,135,VALID,1.10335,
2003-02-08, 00:42:00,VALID,917.105,VALID,0,VALID,95.0372,VALID,-0.0679233,VALID,19.2994,VALID,130,VALID,1.13027,
2003-02-08, 00:43:00,VALID,917.084,VALID,0,VALID,94.8808,VALID,-0.0339617,VALID,19.3026,VALID,126,VALID,0.761936,
2003-02-08, 00:44:00,VALID,917.075,VALID,0,VALID,94.821,VALID,-0.0509425,VALID,19.3218,VALID,138,VALID,0.908854,
2003-02-08, 00:45:00,VALID,917.058,VALID,0,VALID,94.7155,VALID,-0.0509425,VALID,19.3215,VALID,108,VALID,1.07855,
2003-02-08, 00:46:00,VALID,917.044,VALID,0,VALID,94.6621,VALID,-0.0849042,VALID,19.332,VALID,99,VALID,1.11678,
2003-02-08, 00:47:00,VALID,917.04,VALID,0,VALID,94.6926,VALID,-0.0849042,VALID,19.3225,VALID,105,VALID,1.11128,
2003-02-08, 00:48:00,VALID,917.024,VALID,0,VALID,94.6824,VALID,-0.0509425,VALID,19.3183,VALID,113,VALID,1.15393,
2003-02-08, 00:49:00,VALID,917.01,VALID,0,VALID,94.54,VALID,-0.0679233,VALID,19.322,VALID,115,VALID,0.905357,
2003-02-08, 00:50:00,VALID,917,VALID,0,VALID,94.4751,VALID,-0.0679233,VALID,19.3123,VALID,122,VALID,1.25658,
2003-02-08, 00:51:00,VALID,916.982,VALID,0,VALID,94.4141,VALID,-0.0849042,VALID,19.3158,VALID,117,VALID,1.12289,
2003-02-08, 00:52:00,VALID,916.972,VALID,0,VALID,94.2462,VALID,-0.0679233,VALID,19.3026,VALID,108,VALID,1.24371,
2003-02-08, 00:53:00,VALID,916.963,VALID,0,VALID,94.2132,VALID,-0.0679233,VALID,19.3093,VALID,125,VALID,1.5166,
2003-02-08, 00:54:00,VALID,916.974,VALID,0,VALID,94.0619,VALID,-0.0679233,VALID,19.319,VALID,126,VALID,1.2722,
2003-02-08, 00:55:00,VALID,916.976,VALID,0,VALID,93.8381,VALID,-0.0849042,VALID,19.3479,VALID,129,VALID,0.821546,
2003-02-08, 00:56:00,VALID,916.986,VALID,0,VALID,93.6257,VALID,-0.0509425,VALID,19.3543,VALID,128,VALID,1.27773,
2003-02-08, 00:57:00,VALID,916.938,VALID,0,VALID,93.3027,VALID,-0.101885,VALID,19.3638,VALID,125,VALID,1.17007,
2003-02-08, 00:58:00,VALID,916.943,VALID,0,VALID,92.9479,VALID,-0.101885,VALID,19.3899,VALID,128,VALID,1.29353,
2003-02-08, 00:59:00,VALID,916.932,VALID,0,VALID,92.5029,VALID,-0.0849042,VALID,19.4386,VALID,134,VALID,1.27227,
2003-02-08, 01:00:00,VALID,916.909,VALID,0,VALID,92.3287,VALID,-0.0849042,VALID,19.4578,VALID,131,VALID,1.01519,
2003-02-08, 01:01:00,VALID,916.902,VALID,0,VALID,92.6618,VALID,-0.0509425,VALID,19.4608,VALID,124,VALID,1.15755,
2003-02-08, 01:02:00,VALID,916.874,VALID,0,VALID,92.7534,VALID,-0.0679233,VALID,19.4774,VALID,129,VALID,1.0655,
2003-02-08, 01:03:00,VALID,916.853,VALID,0,VALID,92.7051,VALID,-0.0509425,VALID,19.4739,VALID,126,VALID,0.783512,
2003-02-08, 01:04:00,VALID,916.831,VALID,0,VALID,92.7775,VALID,-0.0849042,VALID,19.455,VALID,136,VALID,0.825452,
2003-02-08, 01:05:00,VALID,916.818,VALID,0,VALID,93.1857,VALID,0.0169808,VALID,19.4247,VALID,136,VALID,1.09523,
2003-02-08, 01:06:00,VALID,916.797,VALID,0,VALID,93.3307,VALID,0.0169808,VALID,19.3924,VALID,113,VALID,1.00586,
2003-02-08, 01:07:00,VALID,916.762,VALID,0,VALID,93.7173,VALID,0.0339617,VALID,19.3494,VALID,120,VALID,1.1231,
2003-02-08, 01:08:00,VALID,916.746,VALID,0,VALID,93.7223,VALID,0.0339617,VALID,19.3367,VALID,95,VALID,1.30058,
2003-02-08, 01:09:00,VALID,916.716,VALID,0,VALID,93.8597,VALID,0.0509425,VALID,19.3136,VALID,114,VALID,1.32192,
2003-02-08, 01:10:00,VALID,916.691,VALID,0,VALID,93.9576,VALID,0.0679233,VALID,19.3111,VALID,108,VALID,1.502,
2003-02-08, 01:11:00,VALID,916.682,VALID,0,VALID,93.9652,VALID,0.0339617,VALID,19.3079,VALID,123,VALID,1.31313,
2003-02-08, 01:12:00,VALID,916.658,VALID,0,VALID,93.8508,VALID,0.0679233,VALID,19.3046,VALID,115,VALID,1.62336,
2003-02-08, 01:13:00,VALID,916.656,VALID,0,VALID,93.805,VALID,0.0509425,VALID,19.3206,VALID,118,VALID,1.10877,
2003-02-08, 01:14:00,VALID,916.664,VALID,0,VALID,93.6728,VALID,0.0339617,VALID,19.3337,VALID,120,VALID,0.987179,
2003-02-08, 01:15:00,VALID,916.674,VALID,0,VALID,93.73,VALID,0.0849042,VALID,19.327,VALID,119,VALID,1.34076,
2003-02-08, 01:16:00,VALID,916.694,VALID,0,VALID,93.8114,VALID,0.0509425,VALID,19.3173,VALID,109,VALID,1.33614,
2003-02-08, 01:17:00,VALID,916.698,VALID,0,VALID,93.8406,VALID,0.0509425,VALID,19.3016,VALID,121,VALID,1.01774,
2003-02-08, 01:18:00,VALID,916.678,VALID,0,VALID,93.9067,VALID,0.0169808,VALID,19.2457,VALID,141,VALID,1.04514,
2003-02-08, 01:19:00,VALID,916.673,VALID,0,VALID,94.1318,VALID,0.0679233,VALID,19.2104,VALID,138,VALID,1.21289,
2003-02-08, 01:20:00,VALID,916.688,VALID,0,VALID,94.4802,VALID,0.0679233,VALID,19.1883,VALID,138,VALID,1.20991,
2003-02-08, 01:21:00,VALID,916.661,VALID,0,VALID,94.8197,VALID,0.0509425,VALID,19.1629,VALID,134,VALID,1.04265,
2003-02-08, 01:22:00,VALID,916.667,VALID,0,VALID,94.8286,VALID,0.0509425,VALID,19.1304,VALID,114,VALID,1.42723,
2003-02-08, 01:23:00,VALID,916.672,VALID,0,VALID,95.0372,VALID,0.0339617,VALID,19.1204,VALID,121,VALID,1.39442,
2003-02-08, 01:24:00,VALID,916.676,VALID,0,VALID,95.1872,VALID,0.0509425,VALID,19.1045,VALID,138,VALID,1.76645,
2003-02-08, 01:25:00,VALID,916.659,VALID,0,VALID,95.0664,VALID,0.0169808,VALID,19.1336,VALID,115,VALID,1.72716,
2003-02-08, 01:26:00,VALID,916.682,VALID,0,VALID,94.7994,VALID,0.0339617,VALID,19.1398,VALID,111,VALID,1.48867,
2003-02-08, 01:27:00,VALID,916.672,VALID,0,VALID,94.8909,VALID,0.0169808,VALID,19.1562,VALID,135,VALID,1.25987,
2003-02-08, 01:28:00,VALID,916.662,VALID,0,VALID,94.8693,VALID,0.0509425,VALID,19.1393,VALID,126,VALID,1.36972,
2003-02-08, 01:29:00,VALID,916.652,VALID,0,VALID,94.7193,VALID,0.0679233,VALID,19.1329,VALID,118,VALID,1.22937,
2003-02-08, 01:30:00,VALID,916.663,VALID,0,VALID,94.8884,VALID,0.0509425,VALID,19.1174,VALID,133,VALID,1.10036,
2003-02-08, 01:31:00,VALID,916.645,VALID,0,VALID,95.1249,VALID,0.0339617,VALID,19.1075,VALID,141,VALID,1.69932,
2003-02-08, 01:32:00,VALID,916.649,VALID,0,VALID,95.0702,VALID,0.0339617,VALID,19.1169,VALID,137,VALID,1.19866,
2003-02-08, 01:33:00,VALID,916.625,VALID,0,VALID,94.9507,VALID,0,VALID,19.1174,VALID,140,VALID,1.21387,
2003-02-08, 01:34:00,VALID,916.631,VALID,0,VALID,94.9075,VALID,0.0169808,VALID,19.1008,VALID,138,VALID,1.49023,
2003-02-08, 01:35:00,VALID,916.633,VALID,0,VALID,94.8439,VALID,0,VALID,19.0948,VALID,133,VALID,1.15408,
2003-02-08, 01:36:00,VALID,916.635,VALID,0,VALID,95.116,VALID,0.0339617,VALID,19.0685,VALID,132,VALID,1.48796,
2003-02-08, 01:37:00,VALID,916.632,VALID,0,VALID,95.2775,VALID,0,VALID,19.1114,VALID,142,VALID,1.40769,
2003-02-08, 01:38:00,VALID,916.631,VALID,0,VALID,95.0779,VALID,0,VALID,19.1271,VALID,155,VALID,1.70925,
2003-02-08, 01:39:00,VALID,916.635,VALID,0,VALID,94.9901,VALID,0,VALID,19.1465,VALID,141,VALID,1.64907,
2003-02-08, 01:40:00,VALID,916.652,VALID,0,VALID,94.5107,VALID,0.0169808,VALID,19.1537,VALID,106,VALID,1.06183,
2003-02-08, 01:41:00,VALID,916.678,VALID,0,VALID,94.8871,VALID,0.0339617,VALID,19.1266,VALID,140,VALID,1.38939,
2003-02-08, 01:42:00,VALID,916.669,VALID,0,VALID,94.98,VALID,0.0339617,VALID,19.1756,VALID,144,VALID,1.81356,
2003-02-08, 01:43:00,VALID,916.682,VALID,0,VALID,94.6799,VALID,0.0339617,VALID,19.2303,VALID,126,VALID,1.43788,
2003-02-08, 01:44:00,VALID,916.694,VALID,0,VALID,94.4993,VALID,0.0339617,VALID,19.2589,VALID,135,VALID,1.40937,
2003-02-08, 01:45:00,VALID,916.693,VALID,0,VALID,94.334,VALID,0.0169808,VALID,19.3049,VALID,125,VALID,1.1213,
2003-02-08, 01:46:00,VALID,916.692,VALID,0,VALID,94.1992,VALID,0.0339617,VALID,19.3143,VALID,119,VALID,1.26583,
2003-02-08, 01:47:00,VALID,916.699,VALID,0,VALID,94.3403,VALID,0.0169808,VALID,19.3181,VALID,136,VALID,1.20859,
2003-02-08, 01:48:00,VALID,916.684,VALID,0,VALID,94.4026,VALID,0.0169808,VALID,19.3116,VALID,123,VALID,1.14443,
2003-02-08, 01:49:00,VALID,916.651,VALID,0,VALID,94.3632,VALID,0,VALID,19.2954,VALID,136,VALID,1.22518,
2003-02-08, 01:50:00,VALID,916.623,VALID,0,VALID,94.5209,VALID,0.0169808,VALID,19.2793,VALID,147,VALID,1.68418,
2003-02-08, 01:51:00,VALID,916.595,VALID,0,VALID,94.6341,VALID,0.0169808,VALID,19.2691,VALID,128,VALID,1.70378,
2003-02-08, 01:52:00,VALID,916.586,VALID,0,VALID,94.4917,VALID,0.0169808,VALID,19.2499,VALID,122,VALID,1.30447,
2003-02-08, 01:53:00,VALID,916.587,VALID,0,VALID,94.512,VALID,-0.0169808,VALID,19.2437,VALID,125,VALID,0.998397,
2003-02-08, 01:54:00,VALID,916.604,VALID,0,VALID,94.7129,VALID,0.0169808,VALID,19.2243,VALID,134,VALID,1.22965,
2003-02-08, 01:55:00,VALID,916.593,VALID,0,VALID,94.8782,VALID,0.0339617,VALID,19.1982,VALID,150,VALID,1.45662,
2003-02-08, 01:56:00,VALID,916.596,VALID,0,VALID,94.9291,VALID,0.0169808,VALID,19.1788,VALID,141,VALID,1.6098,
2003-02-08, 01:57:00,VALID,916.605,VALID,0,VALID,95.0334,VALID,0.0169808,VALID,19.1502,VALID,132,VALID,1.32726,
2003-02-08, 01:58:00,VALID,916.597,VALID,0,VALID,95.1071,VALID,0,VALID,19.0916,VALID,116,VALID,1.17525,
2003-02-08, 01:59:00,VALID,916.599,VALID,0,VALID,95.3004,VALID,0,VALID,19.053,VALID,134,VALID,0.77611,
2003-02-08, 02:00:00,VALID,916.586,VALID,0,VALID,95.5255,VALID,0,VALID,19.0073,VALID,140,VALID,1.42929,
2003-02-08, 02:01:00,VALID,916.579,VALID,0,VALID,95.5217,VALID,0,VALID,18.9785,VALID,111,VALID,1.14844,
2003-02-08, 02:02:00,VALID,916.555,VALID,0,VALID,95.7887,VALID,0.0169808,VALID,18.9365,VALID,93,VALID,1.78167,
2003-02-08, 02:03:00,VALID,916.562,VALID,0,VALID,95.982,VALID,0,VALID,18.9335,VALID,109,VALID,1.3271,
2003-02-08, 02:04:00,VALID,916.547,VALID,0,VALID,96.1511,VALID,0.0339617,VALID,18.9521,VALID,120,VALID,1.48938,
2003-02-08, 02:05:00,VALID,916.515,VALID,0,VALID,95.9286,VALID,0,VALID,18.9889,VALID,116,VALID,1.55128,
2003-02-08, 02:06:00,VALID,916.483,VALID,0,VALID,95.8383,VALID,0.0339617,VALID,19.0006,VALID,105,VALID,1.35041,
2003-02-08, 02:07:00,VALID,916.452,VALID,0,VALID,95.701,VALID,0.0169808,VALID,19.0202,VALID,95,VALID,1.57381,
2003-02-08, 02:08:00,VALID,916.434,VALID,0,VALID,95.5738,VALID,0,VALID,19.0336,VALID,105,VALID,1.66491,
2003-02-08, 02:09:00,VALID,916.445,VALID,0,VALID,95.4416,VALID,0,VALID,19.0496,VALID,110,VALID,1.16428,
2003-02-08, 02:10:00,VALID,916.418,VALID,0,VALID,95.4657,VALID,0,VALID,19.0565,VALID,140,VALID,1.34722,
2003-02-08, 02:11:00,VALID,916.426,VALID,0,VALID,95.5293,VALID,0.0169808,VALID,19.0729,VALID,157,VALID,1.6141,
2003-02-08, 02:12:00,VALID,916.409,VALID,0,VALID,95.4072,VALID,0,VALID,19.0754,VALID,149,VALID,1.27006,
2003-02-08, 02:13:00,VALID,916.404,VALID,0,VALID,95.3068,VALID,0.0169808,VALID,19.0856,VALID,134,VALID,1.35,
2003-02-08, 02:14:00,VALID,916.394,VALID,0,VALID,95.2241,VALID,0,VALID,19.0724,VALID,126,VALID,1.24531,
2003-02-08, 02:15:00,VALID,916.411,VALID,0,VALID,95.1885,VALID,0.0169808,VALID,19.0635,VALID,111,VALID,1.69922,
2003-02-08, 02:16:00,VALID,916.413,VALID,0,VALID,95.3042,VALID,0.0509425,VALID,19.0336,VALID,142,VALID,1.46454,
2003-02-08, 02:17:00,VALID,916.417,VALID,0,VALID,95.4606,VALID,0.0339617,VALID,19.0043,VALID,127,VALID,1.03691,
2003-02-08, 02:18:00,VALID,916.415,VALID,0,VALID,95.5687,VALID,0,VALID,18.9919,VALID,142,VALID,1.38754,
2003-02-08, 02:19:00,VALID,916.397,VALID,0,VALID,95.6437,VALID,0,VALID,18.9725,VALID,135,VALID,1.11867,
2003-02-08, 02:20:00,VALID,916.385,VALID,0,VALID,95.7607,VALID,0,VALID,18.9558,VALID,134,VALID,1.51162,
2003-02-08, 02:21:00,VALID,916.358,VALID,0,VALID,95.8408,VALID,0,VALID,18.9692,VALID,136,VALID,1.85397,
2003-02-08, 02:22:00,VALID,916.347,VALID,0,VALID,95.7633,VALID,0.0169808,VALID,18.9789,VALID,150,VALID,1.89123,
2003-02-08, 02:23:00,VALID,916.34,VALID,0,VALID,95.6158,VALID,0,VALID,18.9886,VALID,127,VALID,1.57165,
2003-02-08, 02:24:00,VALID,916.331,VALID,0,VALID,95.57,VALID,-0.0169808,VALID,18.9951,VALID,136,VALID,1.32813,
2003-02-08, 02:25:00,VALID,916.337,VALID,0,VALID,95.411,VALID,0,VALID,19.0113,VALID,129,VALID,0.989366,
2003-02-08, 02:26:00,VALID,916.326,VALID,0,VALID,95.3564,VALID,0,VALID,19.0242,VALID,124,VALID,0.891059,
2003-02-08, 02:27:00,VALID,916.33,VALID,0,VALID,95.2076,VALID,0,VALID,19.0401,VALID,114,VALID,1.03378,
2003-02-08, 02:28:00,VALID,916.302,VALID,0,VALID,95.0741,VALID,0,VALID,19.0595,VALID,133,VALID,1.11205,
2003-02-08, 02:29:00,VALID,916.283,VALID,0,VALID,94.8986,VALID,0,VALID,19.0692,VALID,121,VALID,0.850929,
2003-02-08, 02:30:00,VALID,916.239,VALID,0,VALID,94.882,VALID,0.0169808,VALID,19.0757,VALID,133,VALID,1.5171,
2003-02-08, 02:31:00,VALID,916.195,VALID,0,VALID,94.7765,VALID,0,VALID,19.0925,VALID,134,VALID,1.3817,
2003-02-08, 02:32:00,VALID,916.171,VALID,0,VALID,94.6977,VALID,0.0339617,VALID,19.1147,VALID,126,VALID,1.40933,
2003-02-08, 02:33:00,VALID,916.143,VALID,0,VALID,94.4993,VALID,0.0339617,VALID,19.1341,VALID,135,VALID,1.37922,
2003-02-08, 02:34:00,VALID,916.127,VALID,0,VALID,94.3378,VALID,0.0169808,VALID,19.1604,VALID,144,VALID,1.67664,
2003-02-08, 02:35:00,VALID,916.112,VALID,0,VALID,94.231,VALID,0,VALID,19.1629,VALID,128,VALID,1.30723,
2003-02-08, 02:36:00,VALID,916.106,VALID,0,VALID,94.1928,VALID,0.0169808,VALID,19.1788,VALID,135,VALID,1.62336,
2003-02-08, 02:37:00,VALID,916.1,VALID,0,VALID,94.0491,VALID,0.0169808,VALID,19.192,VALID,132,VALID,1.24692,
2003-02-08, 02:38:00,VALID,916.103,VALID,0,VALID,93.9665,VALID,0.0509425,VALID,19.1982,VALID,125,VALID,1.71914,
2003-02-08, 02:39:00,VALID,916.091,VALID,0,VALID,93.8241,VALID,0.0509425,VALID,19.2179,VALID,127,VALID,1.48277,
2003-02-08, 02:40:00,VALID,916.069,VALID,0,VALID,93.5888,VALID,0.0339617,VALID,19.237,VALID,130,VALID,0.980804,
2003-02-08, 02:41:00,VALID,916.07,VALID,0,VALID,93.4947,VALID,0.0509425,VALID,19.2534,VALID,147,VALID,1.39004,
2003-02-08, 02:42:00,VALID,916.046,VALID,0,VALID,93.4642,VALID,0.0339617,VALID,19.2631,VALID,146,VALID,1.87001,
2003-02-08, 02:43:00,VALID,916.048,VALID,0,VALID,93.4782,VALID,0.0679233,VALID,19.2659,VALID,145,VALID,1.88433,
2003-02-08, 02:44:00,VALID,916.064,VALID,0,VALID,93.5507,VALID,0.0509425,VALID,19.2594,VALID,133,VALID,1.83974,
2003-02-08, 02:45:00,VALID,916.069,VALID,0,VALID,93.5265,VALID,0.0509425,VALID,19.2368,VALID,146,VALID,1.44428,
2003-02-08, 02:46:00,VALID,916.079,VALID,0,VALID,93.7109,VALID,0.0339617,VALID,19.2211,VALID,149,VALID,1.55428,
2003-02-08, 02:47:00,VALID,916.082,VALID,0,VALID,93.7999,VALID,0,VALID,19.2047,VALID,149,VALID,1.94869,
2003-02-08, 02:48:00,VALID,916.086,VALID,0,VALID,93.7732,VALID,0.0169808,VALID,19.2116,VALID,147,VALID,2.04145,
2003-02-08, 02:49:00,VALID,916.073,VALID,0,VALID,93.641,VALID,0.0339617,VALID,19.2077,VALID,154,VALID,1.20946,
2003-02-08, 02:50:00,VALID,916.065,VALID,0,VALID,93.6244,VALID,-0.0169808,VALID,19.2188,VALID,151,VALID,1.79893,
2003-02-08, 02:51:00,VALID,916.064,VALID,0,VALID,93.6995,VALID,-0.0509425,VALID,19.2128,VALID,147,VALID,1.91687,
2003-02-08, 02:52:00,VALID,916.019,VALID,0,VALID,93.6829,VALID,-0.0849042,VALID,19.2029,VALID,139,VALID,1.58433,
2003-02-08, 02:53:00,VALID,915.995,VALID,0,VALID,93.6613,VALID,-0.0679233,VALID,19.1833,VALID,136,VALID,1.26077,
2003-02-08, 02:54:00,VALID,915.997,VALID,0,VALID,93.5494,VALID,-0.0849042,VALID,19.1865,VALID,126,VALID,0.978413,
2003-02-08, 02:55:00,VALID,915.97,VALID,0,VALID,93.4833,VALID,-0.0679233,VALID,19.1835,VALID,110,VALID,1.28866,
2003-02-08, 02:56:00,VALID,915.958,VALID,0,VALID,93.4261,VALID,-0.0169808,VALID,19.1763,VALID,93,VALID,1.31811,
2003-02-08, 02:57:00,VALID,915.961,VALID,0,VALID,93.4464,VALID,-0.0509425,VALID,19.2029,VALID,102,VALID,1.20703,
2003-02-08, 02:58:00,VALID,915.943,VALID,0,VALID,93.2951,VALID,-0.0679233,VALID,19.2027,VALID,110,VALID,1.16016,
2003-02-08, 02:59:00,VALID,915.954,VALID,0,VALID,93.2086,VALID,-0.101885,VALID,19.2124,VALID,122,VALID,1.6666,
2003-02-08, 03:00:00,VALID,915.972,VALID,0,VALID,93.0764,VALID,-0.0679233,VALID,19.2352,VALID,133,VALID,1.16037,
2003-02-08, 03:01:00,VALID,915.964,VALID,0,VALID,92.9352,VALID,-0.0339617,VALID,19.2382,VALID,113,VALID,1.10612,
2003-02-08, 03:02:00,VALID,915.995,VALID,0,VALID,92.7686,VALID,-0.0509425,VALID,19.2285,VALID,122,VALID,0.958882,
2003-02-08, 03:03:00,VALID,915.993,VALID,0,VALID,93.1578,VALID,-0.0509425,VALID,19.1992,VALID,114,VALID,1.31187,
2003-02-08, 03:04:00,VALID,915.967,VALID,0,VALID,93.2035,VALID,-0.0339617,VALID,19.1867,VALID,137,VALID,1.34554,
2003-02-08, 03:05:00,VALID,915.939,VALID,0,VALID,93.1539,VALID,0.0509425,VALID,19.1987,VALID,103,VALID,1.3971,
2003-02-08, 03:06:00,VALID,915.938,VALID,0,VALID,93.126,VALID,0.0679233,VALID,19.2047,VALID,120,VALID,1.46258,
2003-02-08, 03:07:00,VALID,915.896,VALID,0,VALID,93.1679,VALID,0.0339617,VALID,19.2079,VALID,138,VALID,1.50461,
2003-02-08, 03:08:00,VALID,915.907,VALID,0,VALID,92.9607,VALID,0,VALID,19.2273,VALID,129,VALID,1.02305,
2003-02-08, 03:09:00,VALID,915.886,VALID,0,VALID,92.747,VALID,0.0169808,VALID,19.2402,VALID,102,VALID,1.20909,
2003-02-08, 03:10:00,VALID,915.88,VALID,0,VALID,92.8475,VALID,0,VALID,19.237,VALID,115,VALID,1.47931,
2003-02-08, 03:11:00,VALID,915.873,VALID,0,VALID,92.8131,VALID,0.0169808,VALID,19.2373,VALID,121,VALID,1.01322,
2003-02-08, 03:12:00,VALID,915.872,VALID,0,VALID,92.9085,VALID,0.0169808,VALID,19.2305,VALID,148,VALID,1.90004,
2003-02-08, 03:13:00,VALID,915.866,VALID,0,VALID,92.7737,VALID,0.0169808,VALID,19.273,VALID,147,VALID,1.76202,
2003-02-08, 03:14:00,VALID,915.852,VALID,0,VALID,92.4456,VALID,0,VALID,19.3277,VALID,143,VALID,1.43504,
2003-02-08, 03:15:00,VALID,915.864,VALID,0,VALID,92.2981,VALID,0.0339617,VALID,19.3377,VALID,129,VALID,1.27207,
2003-02-08, 03:16:00,VALID,915.865,VALID,0,VALID,92.4635,VALID,0,VALID,19.3176,VALID,119,VALID,1.44444,
2003-02-08, 03:17:00,VALID,915.846,VALID,0,VALID,92.4762,VALID,0,VALID,19.3051,VALID,96,VALID,1.35026,
2003-02-08, 03:18:00,VALID,915.865,VALID,0,VALID,92.5576,VALID,0.0169808,VALID,19.2954,VALID,136,VALID,1.49071,
2003-02-08, 03:19:00,VALID,915.851,VALID,0,VALID,92.6262,VALID,-0.0169808,VALID,19.2758,VALID,116,VALID,1.07689,
2003-02-08, 03:20:00,VALID,915.818,VALID,0,VALID,92.5754,VALID,-0.0339617,VALID,19.2932,VALID,122,VALID,1.56419,
2003-02-08, 03:21:00,VALID,915.806,VALID,0,VALID,92.4711,VALID,-0.101885,VALID,19.2969,VALID,130,VALID,1.14084,
2003-02-08, 03:22:00,VALID,915.797,VALID,0,VALID,92.6071,VALID,-0.101885,VALID,19.2708,VALID,126,VALID,1.08571,
2003-02-08, 03:23:00,VALID,915.787,VALID,0,VALID,92.789,VALID,-0.0849042,VALID,19.2581,VALID,139,VALID,1.72553,
2003-02-08, 03:24:00,VALID,915.799,VALID,0,VALID,92.658,VALID,-0.0169808,VALID,19.2549,VALID,129,VALID,1.15203,
2003-02-08, 03:25:00,VALID,915.828,VALID,0,VALID,92.7419,VALID,-0.0679233,VALID,19.2683,VALID,140,VALID,1.46532,
2003-02-08, 03:26:00,VALID,915.827,VALID,0,VALID,92.6529,VALID,-0.0509425,VALID,19.2608,VALID,140,VALID,1.08633,
2003-02-08, 03:27:00,VALID,915.433,VALID,0,VALID,92.5601,VALID,-0.0679233,VALID,19.2551,VALID,123,VALID,0.88199,
2003-02-08, 03:28:00,VALID,915.89,VALID,0,VALID,92.7839,VALID,-0.0849042,VALID,19.2454,VALID,131,VALID,1.38816,
2003-02-08, 03:29:00,VALID,915.874,VALID,0,VALID,92.7623,VALID,-0.0679233,VALID,19.2484,VALID,123,VALID,1.40898,
2003-02-08, 03:30:00,VALID,915.887,VALID,0,VALID,92.6834,VALID,-0.0849042,VALID,19.2646,VALID,135,VALID,1.51362,
2003-02-08, 03:31:00,VALID,915.88,VALID,0,VALID,92.6606,VALID,-0.0679233,VALID,19.2544,VALID,122,VALID,1.30223,
2003-02-08, 03:32:00,VALID,915.889,VALID,0,VALID,92.8348,VALID,-0.0679233,VALID,19.2352,VALID,135,VALID,1.46172,
2003-02-08, 03:33:00,VALID,915.891,VALID,0,VALID,92.7826,VALID,-0.0849042,VALID,19.2415,VALID,129,VALID,1.59266,
2003-02-08, 03:34:00,VALID,915.914,VALID,0,VALID,92.63,VALID,-0.0849042,VALID,19.2579,VALID,123,VALID,0.873915,
2003-02-08, 03:35:00,VALID,915.948,VALID,0,VALID,92.6364,VALID,0,VALID,19.2534,VALID,109,VALID,0.842748,